GW2291 Weather Reports


time (UTC)temp
C
wind
direction
speed
KPH
gust
KPH
rain 1hr
cm
rain 24hr
cm
rain mn
cm
humidity
%
barometer
mb
20260505031620 19 158 0.0 0.0 0.00 0.00 0.00 65 1010.7
20260505030610 20 270 0.0 0.0 0.00 0.00 0.00 63 1010.4
20260505025555 20 113 3.2 3.2 0.00 0.00 0.00 63 1010.3
20260505025036 20 225 1.6 1.6 0.00 0.00 0.00 62 1010.3
20260505024022 21 225 1.6 1.6 0.00 0.00 0.00 62 1010.1
20260505023515 21 113 0.0 0.0 0.00 0.00 0.00 60 1009.9
20260505023012 21 0 0.0 0.0 0.00 0.00 0.00 60 1009.9
20260505021943 21 90 1.6 1.6 0.00 0.00 0.00 59 1009.7
20260505021435 22 180 1.6 1.6 0.00 0.00 0.00 57 1009.7
20260505020925 22 135 3.2 3.2 0.00 0.00 0.00 57 1009.7
20260505020420 22 225 1.6 1.6 0.00 0.00 0.00 58 1009.7
20260505015411 22 225 1.6 1.6 0.00 0.00 0.00 57 1009.7
20260505014845 22 203 0.0 0.0 0.00 0.00 0.00 56 1009.9
20260505014340 23 248 0.0 0.0 0.00 0.00 0.00 55 1009.9
20260505013325 23 45 3.2 3.2 0.00 0.00 0.00 53 1010.0
20260505012315 23 180 0.0 0.0 0.00 0.00 0.00 54 1010.0
20260505011245 23 315 0.0 0.0 0.00 0.00 0.00 54 1010.0
20260505010743 24 68 1.6 1.6 0.00 0.00 0.00 52 1010.0
20260505005725 24 315 3.2 3.2 0.00 0.00 0.00 52 1009.9
20260505004715 25 23 3.2 3.2 0.00 0.00 0.00 50 1009.7
20260505004210 25 23 4.8 4.8 0.00 0.00 0.00 50 1009.7
20260505003645 25 338 3.2 3.2 0.00 0.00 0.00 50 1009.7
20260505002635 25 23 1.6 1.6 0.00 0.00 0.00 50 1009.7
20260505002125 25 23 3.2 3.2 0.00 0.00 0.00 49 1009.5
20260505000610 25 45 1.6 1.6 0.00 0.00 0.00 52 1009.5
20260504235555 25 23 3.2 3.2 0.00 0.00 0.00 50 1009.5
20260504235050 25 113 3.2 3.2 0.00 0.00 0.00 52 1009.5
20260504234545 25 180 0.0 0.0 0.00 0.00 0.00 51 1009.3
20260504234040 25 113 4.8 4.8 0.00 0.00 0.00 52 1009.3
20260504233026 25 203 4.8 4.8 0.00 0.00 0.00 51 1009.5
20260504232520 25 248 1.6 1.6 0.00 0.00 0.00 52 1009.5
20260504232017 25 203 3.2 3.2 0.00 0.00 0.00 51 1009.5
20260504231510 26 270 3.2 3.2 0.00 0.00 0.00 51 1009.5
20260504230455 26 338 1.6 1.6 0.00 0.00 0.00 49 1009.7
20260504224943 27 68 3.2 3.2 0.00 0.00 0.00 47 1009.7
20260504223420 27 248 3.2 3.2 0.00 0.00 0.00 48 1010.3
20260504222411 28 23 0.0 0.0 0.00 0.00 0.00 44 1010.4
20260504220854 27 315 1.6 1.6 0.00 0.00 0.00 48 1010.6
20260504205407 26 225 1.6 1.6 0.00 0.00 0.00 54 1011.5
20260504204910 27 68 0.0 0.0 0.00 0.00 0.00 51 1011.5
20260504202409 26 203 1.6 1.6 0.00 0.00 0.00 53 1012.0
20260504201905 27 45 3.2 3.2 0.00 0.00 0.00 53 1012.0
20260504201354 26 113 3.2 3.2 0.00 0.00 0.00 53 1012.0
20260504200344 26 135 1.6 1.6 0.00 0.00 0.00 54 1012.0
20260504194824 26 158 3.2 3.2 0.00 0.00 0.00 54 1012.3
20260504194319 26 68 3.2 3.2 0.00 0.00 0.00 55 1012.3
20260504193814 26 113 1.6 1.6 0.00 0.00 0.00 55 1012.3
20260504191750 25 158 1.6 1.6 0.00 0.00 0.00 57 1012.7
20260504190739 25 113 3.2 3.2 0.00 0.00 0.00 58 1012.9
20260504190234 24 113 1.6 1.6 0.00 0.00 0.00 59 1012.9
20260504185724 25 45 1.6 1.6 0.00 0.00 0.00 58 1012.9
20260504185219 23 338 0.0 0.0 0.00 0.00 0.00 61 1012.9
20260504184715 25 203 1.6 1.6 0.00 0.00 0.00 60 1012.9
20260504184209 24 180 3.2 3.2 0.00 0.00 0.00 58 1012.9
20260504183704 23 338 0.0 0.0 0.00 0.00 0.00 63 1013.1
20260504183154 23 338 3.2 3.2 0.00 0.00 0.00 61 1013.1
20260504182649 23 158 3.2 3.2 0.00 0.00 0.00 62 1013.1
20260504182144 22 270 3.2 3.2 0.00 0.00 0.00 64 1013.2
20260504181639 23 45 3.2 3.2 0.00 0.00 0.00 60 1013.2
20260504180624 22 270 1.6 1.6 0.00 0.00 0.00 63 1013.2
20260504180119 23 45 3.2 3.2 0.00 0.00 0.00 63 1013.2
20260504175109 22 23 3.2 3.2 0.00 0.00 0.00 66 1013.2
20260504174559 22 113 1.6 1.6 0.00 0.00 0.00 65 1013.4
20260504174054 22 338 1.6 1.6 0.00 0.00 0.00 65 1013.4
20260504173551 21 270 3.2 3.2 0.00 0.00 0.00 67 1013.4
20260504173045 21 135 1.6 1.6 0.00 0.00 0.00 69 1013.4